Weather History for Sanford, NC

Change the Weather History Date:

Tuesday, December 18, 2012

  Actual Average (KRDU) Record (KRDU)
Temperature  
Mean Temperature 56 °F 43 °F  
Max Temperature 59 °F 53 °F 77 °F (1984)
Min Temperature 54 °F 33 °F 10 °F (1973)
Degree Days  
Heating Degree Days 8 22  
Month to date heating degree days 363  
Since 1 July heating degree days 944  
Cooling Degree Days 0 0  
Month to date cooling degree days 0  
Year to date cooling degree days 1728  
Growing Degree Days 6 (Base 50)    
Moisture  
Dew Point 53 °F    
Average Humidity 86    
Maximum Humidity 91    
Minimum Humidity 76    
Precipitation  
Precipitation 0.00 in 0.10 in 1.22 in (1959)
Month to date precipitation 1.78  
Year to date precipitation 42.05  
Snow  
Snow 0.00 in 0.00 in 1.80 in (1945)
Month to date snowfall 0.2  
Since 1 July snowfall 0.3  
Snow Depth -    
Sea Level Pressure  
Sea Level Pressure 29.69 in    
Wind  
Wind Speed 7 mph (SW)    
Max Wind Speed 10 mph    
Max Gust Speed 17 mph    
Visibility 10 miles    
Events      
T = Trace of Precipitation, MM = Missing Value Source: NWS Daily Summary

Daily Weather History Graph

Daily Weather History Graph

Search for Another Location

Airport:

Trip Planner

Search our weather history database for the weather conditions in past years. The results will help you decide how hot, cold, wet, or windy it might be!

Date:

Astronomy

Dec. 18, 2012 Rise Set
Actual Time 7:20 AM EST 5:05 PM EST
Civil Twilight 6:52 AM EST 5:34 PM EST
Nautical Twilight 6:20 AM EST 6:06 PM EST
Astronomical Twilight 5:49 AM EST 6:37 PM EST
Moon 11:10 AM EST (12/18) 11:18 PM EST (12/18)
Length of Visible Light 10h 42m
Length of Day
9h 45m
Waxing Crescent, 34% of the Moon is Illuminated
Dec 18
Waxing Crescent
Dec 20
First Quarter
Dec 28
Full
Jan 4
Last Quarter
Jan 11
New

Hourly Weather History & Observations

Time (EST) Temp. Dew Point Humidity Pressure Visibility Wind Dir Wind Speed Gust Speed Precip Events Conditions
12:15 AM 59.9 °F 55.8 °F 86% 29.67 in 10.0 mi SSW 8.1 mph - N/A   Overcast
12:35 AM 59.9 °F 55.8 °F 86% 29.68 in 10.0 mi SW 9.2 mph 17.3 mph N/A   Overcast
12:55 AM 59.5 °F 55.6 °F 87% 29.68 in 10.0 mi SW 5.8 mph - N/A   Overcast
1:15 AM 59.5 °F 55.4 °F 86% 29.68 in 10.0 mi SW 6.9 mph - N/A   Overcast
1:35 AM 59.4 °F 55.4 °F 87% 29.68 in 10.0 mi SW 6.9 mph - N/A   Overcast
1:55 AM 59.4 °F 54.9 °F 85% 29.69 in 10.0 mi SW 10.4 mph - N/A   Overcast
2:15 AM 59.4 °F 54.5 °F 84% 29.69 in 10.0 mi SW 10.4 mph 16.1 mph N/A   Overcast
2:35 AM 59.0 °F 53.8 °F 83% 29.69 in 10.0 mi SW 8.1 mph - N/A   Overcast
2:55 AM 58.5 °F 53.6 °F 84% 29.68 in 10.0 mi SW 5.8 mph - N/A   Mostly Cloudy
3:15 AM 57.2 °F 52.7 °F 85% 29.68 in 10.0 mi SW 3.5 mph - N/A   Scattered Clouds
3:35 AM 56.3 °F 52.2 °F 86% 29.67 in 10.0 mi SSW 4.6 mph - N/A   Scattered Clouds
3:55 AM 55.9 °F 51.6 °F 85% 29.67 in 10.0 mi SSW 3.5 mph - N/A   Scattered Clouds
4:15 AM 55.0 °F 52.0 °F 89% 29.66 in 7.0 mi South 3.5 mph - N/A   Mostly Cloudy
4:35 AM 55.4 °F 52.3 °F 89% 29.67 in 7.0 mi South 4.6 mph - N/A   Mostly Cloudy
4:55 AM 56.5 °F 53.1 °F 88% 29.67 in 10.0 mi SSW 6.9 mph - N/A   Mostly Cloudy
5:15 AM 56.5 °F 52.7 °F 87% 29.66 in 10.0 mi SSW 5.8 mph - N/A   Scattered Clouds
5:35 AM 54.7 °F 51.6 °F 89% 29.66 in 10.0 mi South 4.6 mph - N/A   Clear
5:55 AM 54.5 °F 51.8 °F 91% 29.67 in 10.0 mi SSW 5.8 mph - N/A   Clear
6:15 AM 54.5 °F 52.0 °F 91% 29.68 in 10.0 mi SSW 5.8 mph - N/A   Clear
6:35 AM 54.5 °F 52.0 °F 91% 29.68 in 10.0 mi SSW 6.9 mph - N/A   Clear
6:55 AM 55.2 °F 52.2 °F 89% 29.68 in 10.0 mi SW 8.1 mph - N/A   Clear
7:15 AM 55.8 °F 52.2 °F 88% 29.69 in 10.0 mi SSW 8.1 mph - N/A   Scattered Clouds
7:35 AM 55.8 °F 51.8 °F 87% 29.70 in 10.0 mi SW 5.8 mph - N/A   Scattered Clouds
7:55 AM 55.4 °F 51.8 °F 88% 29.70 in 10.0 mi SW 5.8 mph - N/A   Clear
8:15 AM 56.3 °F 52.2 °F 86% 29.70 in 10.0 mi SW 4.6 mph - N/A   Clear
8:35 AM 57.2 °F 52.7 °F 85% 29.71 in 10.0 mi SW 8.1 mph - N/A   Clear
8:55 AM 57.7 °F 52.9 °F 84% 29.71 in 10.0 mi WSW 6.9 mph - N/A   Clear
9:15 AM 58.8 °F 53.2 °F 82% 29.71 in 10.0 mi WSW 9.2 mph - N/A   Scattered Clouds
9:35 AM 58.6 °F 52.2 °F 79% 29.71 in 10.0 mi WSW 8.1 mph - N/A   Scattered Clouds
9:55 AM 59.7 °F 52.2 °F 76% 29.71 in 10.0 mi WSW 8.1 mph - N/A   Scattered Clouds
10:15 AM 59.2 °F 51.8 °F 77% 29.72 in 10.0 mi West 8.1 mph - N/A   Mostly Cloudy